542  
ASUS45 KGGW 171915  
RWRGGW  
HOURLY REGIONAL WEATHER ROUNDUP FOR NORTHEAST MONTANA  
NATIONAL WEATHER SERVICE GLASGOW MONTANA  
1200 PM MST SUN FEB 17 2019  
 
NOTE: "FAIR" INDICATES FEW OR NO CLOUDS BELOW 12,000 FEET WITH NO  
SIGNIFICANT WEATHER AND/OR S TO VISISBILITY.  
 
NORTHEAST MONTANA  
 
 
CITY SKY/WX TMP DP RH WIND PRES REMARKS
 
GLASGOW LGT SNOW 0 -9 65 NW13 30.28S WCI -18  
PLENTYWOOD N/A 7 2 80 N5G15 N/A  
WOLF POINT CLOUDY 8 1 73 NW10 30.29R HAZE WCI -6  
JORDAN N/A 2 -7 66 NW14 30.26R WCI -16  
SIDNEY LGT SNOW 8 3 80 N9 30.25R  
GLENDIVE LGT SNOW 1 -4 79 NW18 30.22R WCI -20  
MALTA N/A 0 -8 69 W10 N/A WCI -16  
 
FORT PECK REPORTS  
 
 
CITY SKY/WX TMP DP RH WIND PRES REMARKS
 
FORT PECK N/A 1 -3 83 W17 N/A WCI -19  
THE PINES N/A 2 -5 72 NW9G17 N/A  
 
SOUTHEAST MONTANA  
 
 
CITY SKY/WX TMP DP RH WIND PRES REMARKS
 
BILLINGS CLOUDY 4 -2 76 E3 30.17S HAZE  
MILES CITY LGT SNOW 2 -4 76 NW16 30.25R WCI -18  
BAKER LGT SNOW 1 -4 79 NW16 30.16S VSB 1 WCI -19  
LIVINGSTON N/A N/A N/A N/A MISG 30.06R  
 
CENTRAL MONTANA  
 
 
CITY SKY/WX TMP DP RH WIND PRES REMARKS
 
HAVRE MOSUNNY -3 -9 75 SW13 30.34R WCI -22  
LEWISTOWN LGT SNOW -1 -6 79 NW10 30.18R WCI -17  
GREAT FALLS CLOUDY 2 -4 76 NW9 30.27R  
CUT BANK MOSUNNY -1 -8 72 NW20 30.24R WCI -23  
HELENA CLOUDY 6 -5 60 N14 30.20R WCI -11  
BUTTE CLOUDY 9 0 67 N3 29.95R  
BOZEMAN CLOUDY 10 3 73 NW8 30.07R  
 
WESTERN MONTANA  
 
 
CITY SKY/WX TMP DP RH WIND PRES REMARKS
 
MISSOULA CLOUDY 19 3 49 E21 30.09R  
KALISPELL NOT AVBL  
 
NORTH DAKOTA  
 
 
CITY SKY/WX TMP DP RH WIND PRES REMARKS
 
WILLISTON FLURRIES 9 1 70 N7 30.25R  
DICKINSON CLOUDY 7 0 73 NW10 30.12S HAZE WCI -8  
MINOT CLOUDY 4 -3 73 NW10 30.24R WCI -11  
BISMARCK CLOUDY 11 3 70 N9 30.18S  
 
SOUTHERN SASKATCHEWAN  
 
 
CITY SKY/WX TMP DP RH WIND PRES REMARKS
 
REGINA PTSUNNY 7 -2 66 SE10 30.30R WCI -8  
ESTEVAN CLOUDY 5 -2 72 NE9 30.28R  
SWIFT CURRENT CLOUDY -8 -13 77 W10 30.23R WCI -26  
 
 
 
CLICK HERE TO GO TO PREVIOUS BULLETINS.

The Nexlab MT Page Main Text Page